Osceola, IA

8:11 AM CDT on September 27, 2016 (GMT -0500)
Osceola Municipal

Weather History for KI75 - November, 2012

Change the Weather History Date:

Wednesday, November 7, 2012

  Actual Average (KLWD) Record (KLWD)
Temperature  
Mean Temperature 40 °F 44 °F  
Max Temperature 48 °F 54 °F 75 °F (1966)
Min Temperature 32 °F 34 °F -1 °F (1991)
Degree Days  
Heating Degree Days 24 21  
Month to date heating degree days 138  
Since 1 July heating degree days 622  
Cooling Degree Days 0 0  
Month to date cooling degree days 0  
Year to date cooling degree days 946  
Moisture  
Dew Point 33 °F    
Average Humidity 71    
Maximum Humidity 90    
Minimum Humidity 55    
Precipitation  
Precipitation 0.00 in 0.08 in 1.13 in (2011)
Month to date precipitation 0.77  
Sea Level Pressure  
Sea Level Pressure 30.09 in    
Wind  
Wind Speed 9 mph (NNE)    
Max Wind Speed 18 mph    
Max Gust Speed 26 mph    
Visibility 10 miles    
Events      
T = Trace of Precipitation, MM = Missing Value Source: NWS Daily Summary

Daily Weather History Graph

Daily Weather History Graph

Search for Another Location

Airport or City:

Trip Planner

Search our weather history database for the weather conditions in past years. The results will help you decide how hot, cold, wet, or windy it might be!

Date:

Astronomy

Nov. 07, 2012 Rise Set
Actual Time 6:53 AM CST 5:02 PM CST
Civil Twilight 6:24 AM CST 5:31 PM CST
Nautical Twilight 5:51 AM CST 6:04 PM CST
Astronomical Twilight 5:19 AM CST 6:37 PM CST
Moon No Moon Rise 1:15 PM CST (11/7)
Length of Visible Light 11h 07m
Length of Day
10h 09m
Last Quarter, 43% of the Moon is Illuminated
Nov 7
Last Quarter
Nov 13
New
Nov 20
First Quarter
Nov 28
Full
Dec 6
Last Quarter

Hourly Weather History & Observations

Time (CST) Temp. Windchill Dew Point Humidity Pressure Visibility Wind Dir Wind Speed Gust Speed Precip Events Conditions
12:15 AM 46.6 °F - 31.5 °F 56% 29.99 in 10.0 mi NW 18.4 mph 23.0 mph N/A   Overcast
12:35 AM 46.4 °F 39.2 °F 31.5 °F 56% 30.00 in 10.0 mi NW 18.4 mph 26.5 mph N/A   Overcast
12:55 AM 46.4 °F 40.1 °F 31.6 °F 56% 30.00 in 10.0 mi NW 15.0 mph 24.2 mph N/A   Overcast
1:15 AM 46.0 °F 39.9 °F 32.0 °F 58% 30.00 in 10.0 mi NW 13.8 mph 19.6 mph N/A   Overcast
1:35 AM 45.7 °F 41.0 °F 32.4 °F 60% 30.00 in 10.0 mi NW 9.2 mph 16.1 mph N/A   Overcast
1:55 AM 45.9 °F 39.4 °F 32.2 °F 59% 30.01 in 10.0 mi NW 15.0 mph 20.7 mph N/A   Overcast
2:15 AM 45.5 °F 39.6 °F 32.5 °F 61% 30.01 in 10.0 mi NW 12.7 mph 18.4 mph N/A   Overcast
2:55 AM 45.1 °F 38.4 °F 32.0 °F 60% 30.01 in 10.0 mi NW 15.0 mph 20.7 mph N/A   Overcast
3:15 AM 44.8 °F 37.7 °F 32.2 °F 61% 30.01 in 10.0 mi NW 16.1 mph 20.7 mph N/A   Overcast
3:35 AM 44.6 °F 38.4 °F 32.7 °F 63% 30.02 in 10.0 mi NW 12.7 mph 20.7 mph N/A   Overcast
3:55 AM 44.2 °F 37.3 °F 33.1 °F 65% 30.03 in 10.0 mi NNW 15.0 mph 26.5 mph N/A   Overcast
4:35 AM 42.1 °F 36.1 °F 35.8 °F 78% 30.04 in 10.0 mi NNW 10.4 mph 21.9 mph N/A   Overcast
4:55 AM 41.9 °F 35.9 °F 35.8 °F 79% 30.05 in 10.0 mi NNW 10.4 mph 17.3 mph N/A   Overcast
5:19 AM 42.8 °F 36.6 °F 35.6 °F 76% 30.06 in 10.0 mi NNW 11.5 mph 17.3 mph N/A   Overcast
5:39 AM 41.0 °F 34.7 °F 35.6 °F 81% 30.06 in 10.0 mi NNW 10.4 mph - N/A   Overcast
6:19 AM 41.0 °F 35.8 °F 35.6 °F 81% 30.07 in 10.0 mi NNW 8.1 mph - N/A   Overcast
6:39 AM 39.2 °F 33.0 °F 35.6 °F 87% 30.08 in 10.0 mi NNW 9.2 mph - N/A   Mostly Cloudy
7:00 AM 39.2 °F 33.6 °F 33.8 °F 81% 30.09 in 10.0 mi NNW 8.1 mph - N/A   Scattered Clouds
7:15 AM 38.1 °F 32.9 °F 34.0 °F 85% 30.09 in 10.0 mi NNW 6.9 mph - N/A   Scattered Clouds
7:35 AM 37.9 °F 34.4 °F 34.2 °F 86% 30.10 in 10.0 mi North 4.6 mph - N/A   Scattered Clouds
7:55 AM 38.8 °F 36.5 °F 35.2 °F 87% 30.12 in 10.0 mi NW 3.5 mph - N/A   Mostly Cloudy
8:15 AM 41.4 °F 39.4 °F 35.8 °F 81% 30.13 in 10.0 mi NNW 3.5 mph - N/A   Overcast
8:35 AM 40.5 °F - 35.6 °F 83% 30.13 in 10.0 mi Calm Calm - N/A   Overcast
8:55 AM 42.1 °F 39.2 °F 36.5 °F 81% 30.13 in 10.0 mi NNW 4.6 mph - N/A   Overcast
9:15 AM 43.0 °F 40.3 °F 34.9 °F 73% 30.14 in 10.0 mi NNW 4.6 mph - N/A   Mostly Cloudy
9:35 AM 43.9 °F 39.3 °F 34.5 °F 70% 30.15 in 10.0 mi North 8.1 mph - N/A   Mostly Cloudy
9:55 AM 43.9 °F 39.9 °F 33.3 °F 66% 30.15 in 10.0 mi NNE 6.9 mph - N/A   Mostly Cloudy
10:15 AM 45.3 °F 41.6 °F 32.4 °F 61% 30.15 in 10.0 mi North 6.9 mph - N/A   Mostly Cloudy
10:35 AM 44.8 °F 41.6 °F 32.5 °F 62% 30.16 in 10.0 mi NNW 5.8 mph - N/A   Overcast
10:55 AM 44.8 °F - 32.5 °F 62% 30.15 in 10.0 mi Calm Calm - N/A   Overcast
11:15 AM 45.7 °F 44.4 °F 32.5 °F 60% 30.14 in 10.0 mi North 3.5 mph - N/A   Overcast
11:35 AM 45.7 °F 42.7 °F 32.4 °F 60% 30.15 in 10.0 mi North 5.8 mph - N/A   Overcast
11:55 AM 46.4 °F 43.5 °F 32.9 °F 59% 30.14 in 10.0 mi NNE 5.8 mph - N/A   Overcast
12:15 PM 45.5 °F - 32.5 °F 61% 30.13 in 10.0 mi Calm Calm - N/A   Overcast
12:35 PM 45.5 °F - 32.9 °F 61% 30.13 in 10.0 mi Calm Calm - N/A   Overcast
12:55 PM 46.0 °F - 32.4 °F 59% 30.12 in 10.0 mi Calm Calm - N/A   Overcast
1:15 PM 46.6 °F - 32.7 °F 59% 30.12 in 10.0 mi North 3.5 mph - N/A   Overcast
1:35 PM 46.4 °F 45.2 °F 32.4 °F 58% 30.11 in 10.0 mi WNW 3.5 mph - N/A   Overcast
1:55 PM 46.8 °F - 32.7 °F 58% 30.10 in 10.0 mi North 3.5 mph - N/A   Overcast
2:15 PM 47.3 °F - 32.7 °F 57% 30.10 in 10.0 mi ENE 3.5 mph - N/A   Overcast
2:35 PM 46.9 °F - 32.9 °F 58% 30.10 in 10.0 mi North 3.5 mph - N/A   Overcast
2:55 PM 47.3 °F - 32.5 °F 57% 30.10 in 10.0 mi Calm Calm - N/A   Overcast
3:15 PM 47.5 °F - 32.7 °F 57% 30.10 in 10.0 mi NNW 3.5 mph - N/A   Overcast
3:35 PM 48.2 °F - 32.7 °F 55% 30.10 in 10.0 mi Calm Calm - N/A   Overcast
3:55 PM 48.2 °F - 32.7 °F 55% 30.10 in 10.0 mi Calm Calm - N/A   Mostly Cloudy
4:15 PM 46.9 °F - 32.9 °F 58% 30.11 in 10.0 mi East 3.5 mph - N/A   Scattered Clouds
4:35 PM 44.8 °F - 33.1 °F 64% 30.11 in 10.0 mi Calm Calm - N/A   Clear
4:55 PM 43.5 °F - 32.7 °F 66% 30.10 in 10.0 mi Calm Calm - N/A   Clear
5:15 PM 42.6 °F 40.9 °F 33.3 °F 69% 30.10 in 10.0 mi ENE 3.5 mph - N/A   Clear
5:35 PM 40.1 °F 38.0 °F 32.2 °F 73% 30.10 in 10.0 mi East 3.5 mph - N/A   Clear
5:55 PM 39.6 °F 37.4 °F 32.7 °F 76% 30.10 in 10.0 mi East 3.5 mph - N/A   Clear
6:15 PM 38.5 °F 35.0 °F 32.0 °F 78% 30.10 in 10.0 mi East 4.6 mph - N/A   Clear
6:35 PM 38.3 °F 34.8 °F 32.0 °F 78% 30.10 in 10.0 mi ESE 4.6 mph - N/A   Clear
6:55 PM 37.8 °F 35.3 °F 32.0 °F 80% 30.10 in 10.0 mi East 3.5 mph - N/A   Clear
7:15 PM 37.4 °F 33.8 °F 31.8 °F 80% 30.10 in 10.0 mi East 4.6 mph - N/A   Clear
7:35 PM 36.9 °F 34.3 °F 32.0 °F 83% 30.10 in 10.0 mi SE 3.5 mph - N/A   Clear
7:55 PM 37.2 °F 34.7 °F 31.8 °F 81% 30.11 in 10.0 mi ESE 3.5 mph - N/A   Clear
8:15 PM 36.3 °F 33.7 °F 31.5 °F 83% 30.11 in 10.0 mi SE 3.5 mph - N/A   Clear
8:35 PM 36.0 °F 32.1 °F 31.5 °F 84% 30.11 in 10.0 mi SE 4.6 mph - N/A   Clear
8:55 PM 35.6 °F 31.7 °F 31.1 °F 84% 30.10 in 10.0 mi SE 4.6 mph - N/A   Clear
9:15 PM 35.1 °F 31.0 °F 31.1 °F 85% 30.10 in 10.0 mi SE 4.6 mph - N/A   Clear
9:35 PM 35.1 °F 31.0 °F 30.9 °F 85% 30.11 in 10.0 mi ESE 4.6 mph - N/A   Clear
9:55 PM 34.7 °F 30.6 °F 30.7 °F 85% 30.11 in 10.0 mi SE 4.6 mph - N/A   Clear
10:15 PM 34.2 °F 31.2 °F 30.4 °F 86% 30.11 in 10.0 mi SE 3.5 mph - N/A   Clear
10:35 PM 33.6 °F 29.4 °F 30.2 °F 87% 30.12 in 10.0 mi SE 4.6 mph - N/A   Clear
10:55 PM 33.3 °F 28.9 °F 30.0 °F 88% 30.11 in 10.0 mi SE 4.6 mph - N/A   Clear
11:15 PM 33.1 °F 28.7 °F 30.2 °F 89% 30.12 in 10.0 mi SSE 4.6 mph - N/A   Clear
11:35 PM 33.1 °F 28.7 °F 30.0 °F 89% 30.11 in 10.0 mi SSE 4.6 mph - N/A   Clear
11:55 PM 32.9 °F 27.5 °F 30.2 °F 90% 30.11 in 10.0 mi SE 5.8 mph - N/A   Clear